This demonstration page uses our WeatherBlox Daily Observations layout. Learn more.

Left ArrowRight Arrow

41.55636, -103.73856

Hourly Observations for November 29, 2021

Temp ( °F °C ) Dew Point ( °F °C ) Humidity (%) Winds ( mph kmh ) Pressure ( in mb ) Visibility ( mi km ) Precip ( " mm )
12:58 am 00:58 Clear 44 6.8 27 -2.7 51 51 W 8 13 30.03 1017 10 16 0.00 0.00
1:58 am 01:58 Clear 47 8.4 27 -2.6 46 46 W 15 24 30.03 1017 10 16 0.00 0.00
2:58 am 02:58 Clear 54 12.2 26 -3.6 33 33 WNW 16 26 30.01 1016 10 16 0.00 0.00
3:58 am 03:58 Mostly Clear 47 8.2 27 -2.8 46 46 W 16 26 30.02 1017 10 16 0.00 0.00
4:58 am 04:58 Clear 46 7.6 28 -2.4 50 50 W 12 19 30.06 1018 10 16 0.00 0.00
5:58 am 05:58 Clear 53 11.9 27 -2.7 36 36 WNW 20 31 30.06 1018 10 16 0.00 0.00
6:58 am 06:58 Clear 47 8.1 28 -2.5 47 47 WNW 13 20 30.09 1019 10 16 0.00 0.00
7:58 am 07:58 Sunny 44 6.6 27 -2.6 52 52 WSW 8 13 30.12 1020 10 16 0.00 0.00
8:58 am 08:58 Sunny 52 11.1 25 -3.9 35 35 WNW 9 15 30.12 1020 10 16 0.00 0.00
9:58 am 09:58 Sunny 58 14.2 24 -4.6 27 27 NW 18 30 30.09 1019 10 16 0.00 0.00
10:58 am 10:58 Sunny 62 16.9 22 -5.7 21 21 NNW 25 41 30.06 1018 10 16 0.00 0.00
11:58 am 11:58 Sunny 64 18 21 -6.3 19 19 NNW 20 31 30.02 1017 10 16 0.00 0.00
12:58 pm 12:58 Sunny 65 18.2 20 -6.6 18 18 NW 15 24 30.02 1017 10 16 0.00 0.00
1:58 pm 13:58 Sunny 65 18.4 20 -6.7 18 18 NNW 13 20 29.99 1016 10 16 0.00 0.00
2:58 pm 14:58 Sunny 64 17.8 20 -6.8 18 18 NNW 10 17 29.96 1015 10 16 0.00 0.00
3:58 pm 15:58 Sunny 61 16 21 -6.3 21 21 E 3 6 29.99 1016 10 16 0.00 0.00
4:58 pm 16:58 Clear 51 10.8 21 -6.2 30 30 S 7 11 30.02 1017 10 16 0.00 0.00
5:58 pm 17:58 Clear 48 8.7 21 -6.3 34 34 SSW 5 7 30.02 1017 10 16 0.00 0.00
6:58 pm 18:58 Clear 46 8 20 -6.4 36 36 SW 6 9 30.06 1018 10 16 0.00 0.00
7:58 pm 19:58 Mostly Cloudy 43 6 20 -6.5 41 41 SSW 10 17 30.08 1019 10 16 0.00 0.00
8:58 pm 20:58 Partly Cloudy 44 6.9 21 -6.1 39 39 SSW 13 20 30.05 1018 10 16 0.00 0.00
9:58 pm 21:58 Mostly Cloudy 46 7.9 21 -5.9 37 37 SW 12 19 30.03 1017 10 16 0.00 0.00
10:58 pm 22:58 Mostly Cloudy 48 9 20 -6.7 33 33 W 6 9 30.02 1017 10 16 0.00 0.00
11:58 pm 23:58 Mostly Cloudy 51 10.7 20 -6.6 29 29 WNW 14 22 30.02 1017 10 16 0.00 0.00

Powered by AerisWeather